STARLINK-5466

decayed
NORAD ID: 54765 Int'l Des: 2022-175 Owner: SPXS Country: US Constellation: starlink
LEOCIRCULAR

关于 STARLINK-5466

正在加载描述...

高度历史

Altitude vs Time

uPlot chart will show altitude changes over time

两行轨道根数

1 54765U 22175H 25008.66249874 .17661906 12514-4 57517-3 0 9996
2 54765 53.2003 124.6437 0001776 356.3221 143.2985 16.44918987113983
Epoch: Jan 8, 2025 • Age: 5995 hours

当前状态

Position data unavailable
发射日期 Dec 17, 2022
运行时间 2.7 years
衰减日期 Jan 8, 2025
类型 internet

技术详情

分类 Payload
质量 305.00 kg
干质量 290.00 kg
总质量 305.00 kg
长度 0.20 m
直径 2.80 m
跨度 9.00 m
形状 Box + pan
制造商 SPXS
平台类型 Starlink
阶段状态 Unknown Transfer Status
所有者/国家 SPXS/US

大型星座

Loading constellations...